Theta_e
316 319 322 326 328 326 329 333 333 332 334 338 345 354 352 343 346 359 356 358 356 351 340 334 337 341 342 341 338 332 326 329 333 334 335 336 334 336 333 329 333 333 330 333 336 339 341 345 346
320 326 324 327 326 327 328 330 330 332 332 332 343 356 357 358 344 344 355 354 355 351 343 332 333 339 341 341 341 340 328 329 333 334 334 335 335 331 328 331 334 333 329 336 339 340 342 346 346
316 326 325 325 327 326 327 329 330 330 330 332 343 357 356 358 358 356 357 354 351 347 347 331 334 338 339 341 341 341 333 329 332 333 334 334 334 331 328 332 333 332 330 336 339 340 342 346 346
323 325 325 327 326 325 326 329 328 328 333 337 347 358 360 361 359 359 355 353 349 346 352 330 333 337 340 340 342 343 337 329 331 333 333 335 334 333 330 330 332 332 329 336 339 340 342 345 345
325 325 323 323 324 326 327 327 327 329 334 337 348 359 364 359 358 356 355 353 348 348 350 329 332 336 339 340 342 342 337 330 331 332 333 335 335 335 333 330 332 332 328 336 339 340 342 347 345
324 325 326 325 325 326 326 326 327 327 332 339 350 355 358 359 358 358 356 353 351 353 345 330 332 335 338 340 341 341 337 332 332 334 333 335 335 336 335 329 330 331 328 335 339 341 343 345 346
324 324 323 325 326 327 326 326 327 327 331 336 341 347 358 358 357 355 355 354 354 350 344 340 333 335 338 339 341 341 340 335 336 338 335 334 334 336 335 330 330 330 328 334 339 342 344 345 346
323 324 324 324 324 326 326 326 327 329 331 331 335 343 355 356 353 353 352 353 354 352 350 344 341 343 339 339 339 340 341 340 341 340 336 335 334 336 336 329 329 330 328 332 338 342 344 345 346
323 322 323 324 324 325 326 325 326 327 329 330 331 336 346 353 353 352 349 349 349 354 354 351 347 342 340 343 338 338 339 339 340 340 338 335 335 336 339 330 332 328 329 329 338 341 343 344 345
321 321 321 324 325 325 326 325 326 325 327 328 329 328 337 342 346 344 345 345 347 348 351 353 353 349 347 345 343 329 338 335 337 341 339 336 340 343 344 338 337 331 329 327 336 340 342 343 344
321 320 322 324 324 325 325 324 325 324 325 326 328 328 328 334 336 335 335 336 338 344 344 349 353 355 353 352 351 342 344 342 342 342 342 333 337 343 344 341 336 334 328 330 330 338 341 344 350
321 322 321 323 323 323 324 324 324 323 324 326 326 328 329 328 329 330 330 329 329 330 344 348 351 344 340 358 356 351 347 345 343 341 340 342 337 342 344 342 342 339 336 335 336 336 337 345 349
323 322 323 323 322 322 322 322 323 323 324 325 325 325 325 326 328 327 326 326 325 325 326 351 349 352 343 358 361 354 353 349 347 344 342 343 341 341 343 344 344 339 338 336 338 337 339 340 345
324 323 323 323 323 323 323 322 323 323 324 324 324 324 324 325 326 326 326 326 326 325 325 326 349 357 356 352 351 353 344 355 352 337 341 346 346 343 344 342 342 341 341 339 338 340 339 339 342
323 323 325 324 323 323 324 323 323 323 324 324 324 324 324 327 324 326 325 326 326 326 324 324 338 347 347 345 350 346 348 350 353 344 338 336 348 348 343 343 341 341 341 339 339 339 338 338 337
324 324 324 323 323 323 323 323 324 323 323 324 324 324 324 326 327 325 325 326 326 326 325 324 327 346 344 346 346 347 346 349 355 352 337 339 349 349 346 343 342 341 341 341 340 339 339 340 339
324 323 323 324 324 324 323 323 324 324 324 324 325 325 324 326 329 327 326 325 326 326 327 325 328 342 347 347 349 350 347 347 350 353 347 345 347 349 346 343 340 342 343 344 344 343 341 341 341
325 325 325 323 325 324 324 324 324 324 325 325 325 324 325 324 325 326 326 325 326 326 328 329 331 333 346 345 350 344 346 343 352 350 348 336 329 347 347 348 346 346 344 345 347 346 343 341 342
325 325 326 327 325 326 325 324 324 324 324 324 324 325 325 326 326 324 325 325 326 329 329 329 333 333 343 346 347 341 339 339 338 346 346 341 346 348 347 347 344 343 344 343 343 344 344 344 344
324 324 323 323 323 323 323 323 324 324 325 325 325 325 326 326 326 326 328 327 326 332 333 330 334 336 344 344 338 335 334 335 332 338 343 345 339 345 345 343 344 344 347 345 340 341 340 339 341
323 323 324 324 324 325 325 325 325 325 326 326 326 326 326 326 327 329 331 329 327 334 334 335 332 344 346 339 337 335 337 331 331 334 334 334 338 340 341 342 340 343 341 342 341 339 343 346 341
323 323 324 324 324 325 325 327 328 326 327 327 327 326 325 325 328 330 333 333 330 330 333 333 335 349 346 343 340 337 338 335 331 330 331 337 335 336 339 340 343 343 344 345 340 340 343 346 346
324 324 324 324 325 325 325 325 326 328 328 327 328 326 326 325 326 328 328 329 330 331 334 334 339 349 349 341 345 337 339 334 333 333 334 336 338 336 337 340 343 343 343 342 342 341 342 345 345
324 324 324 325 325 328 326 327 328 327 327 327 328 327 326 325 325 328 328 328 329 329 334 336 336 343 349 347 339 346 341 338 338 329 336 335 333 330 332 336 338 340 342 342 342 341 340 342 343
325 326 327 329 329 331 329 328 330 330 326 325 325 325 325 324 325 327 327 329 331 331 330 336 339 346 347 351 349 341 347 339 336 340 336 334 330 334 337 337 338 339 340 341 341 341 340 340 341
325 329 329 333 333 332 330 331 327 330 329 327 324 324 327 326 325 326 328 329 329 331 332 332 337 339 340 342 346 347 349 346 344 339 335 331 328 328 329 332 335 336 337 337 339 339 339 339 340
325 327 326 329 327 328 329 329 329 327 327 327 325 325 326 327 327 328 328 328 328 330 333 335 336 338 338 338 339 340 341 339 336 335 330 330 330 327 326 327 327 330 332 333 334 337 337 338 338
323 324 327 325 329 332 327 328 328 329 328 327 329 327 326 328 327 327 328 331 328 328 328 330 334 335 334 335 337 338 339 337 336 337 332 330 327 325 327 327 326 326 327 328 330 333 335 336 335
323 323 325 328 328 332 334 328 327 327 327 328 327 326 326 326 324 327 328 328 326 326 326 326 325 326 330 332 333 333 336 335 334 334 331 330 328 329 328 326 326 325 325 325 326 327 332 332 332
320 322 325 331 330 335 336 337 326 329 328 326 326 325 326 324 324 325 327 327 327 326 325 325 324 324 324 326 328 330 331 333 333 332 332 330 330 328 327 326 325 324 323 322 322 324 326 329 332
Wind_Speed
9 9 10 13 6 7 15 20 9 5 2 6 8 12 25 4 4 8 6 13 24 21 23 21 17 16 17 16 15 14 17 18 17 17 16 15 14 13 13 13 13 12 11 12 12 11 11 11 12
10 16 14 6 7 12 15 15 6 4 11 8 6 17 28 20 11 6 4 25 25 22 22 21 19 16 16 16 17 16 17 17 17 16 15 13 13 13 12 12 11 11 11 11 10 10 10 10 11
10 13 8 6 10 15 12 13 11 10 7 9 3 23 8 17 21 22 16 27 25 21 20 20 19 16 14 15 16 16 16 18 17 16 15 13 13 12 12 11 10 10 10 9 9 8 9 10 11
8 7 6 8 17 20 12 9 11 9 1 7 6 10 16 15 18 27 27 25 24 22 19 21 19 16 13 13 16 17 16 18 17 15 14 12 12 12 12 10 9 9 8 8 7 7 7 9 10
15 7 10 13 16 19 7 5 6 10 7 6 9 10 14 20 20 22 23 22 23 23 19 21 18 16 15 14 17 18 17 17 17 15 14 12 12 11 11 10 9 8 8 8 7 7 7 9 10
7 8 12 13 19 16 6 5 8 10 2 2 16 18 9 12 17 19 18 20 23 22 20 20 18 17 15 15 17 18 17 18 17 16 14 12 11 12 11 10 10 8 8 7 6 7 8 9 10
13 11 15 17 20 7 4 5 8 7 2 5 6 16 11 13 19 26 18 20 21 18 19 18 18 17 16 15 16 17 17 17 17 16 16 14 12 11 11 11 10 8 7 7 6 7 8 9 9
12 12 19 18 18 4 10 4 8 7 10 6 5 8 13 14 7 18 18 18 19 22 17 15 15 15 16 16 15 15 16 16 16 16 15 15 14 12 12 12 11 10 9 8 7 7 9 10 10
14 10 13 19 19 7 14 5 8 8 4 2 3 13 13 12 11 19 20 21 22 27 28 26 22 19 16 14 16 17 16 15 16 16 16 17 15 14 12 11 10 10 10 10 9 8 10 11 10
12 11 20 16 16 4 12 9 8 5 12 5 2 11 6 11 12 15 15 17 26 22 19 23 24 26 23 18 15 15 15 17 18 18 19 18 17 15 14 13 15 12 12 11 11 10 11 11 10
16 16 20 15 10 15 7 5 7 1 10 9 14 13 10 7 10 11 13 15 12 27 28 34 33 25 18 28 26 20 17 17 18 20 21 22 18 21 18 20 15 15 14 13 13 13 13 13 16
18 16 19 10 4 7 8 8 7 11 14 4 8 7 14 10 8 10 13 9 8 1 16 26 22 20 19 20 15 27 30 28 27 24 24 18 24 20 22 19 18 15 15 15 15 13 14 16 17
10 15 12 11 5 6 11 11 12 13 9 15 5 2 3 4 8 13 11 11 13 10 14 20 15 14 18 9 7 8 20 22 26 24 28 25 20 16 19 15 20 17 20 15 21 20 16 15 20
13 13 15 10 12 12 12 14 13 15 13 14 5 9 11 11 13 11 9 10 10 9 8 7 13 18 10 4 7 7 13 19 14 10 18 24 17 16 15 17 10 16 20 18 16 17 11 13 11
11 11 13 14 14 13 10 15 19 18 13 18 9 13 13 13 15 11 11 9 7 8 7 7 5 14 11 6 7 11 12 10 7 14 19 31 17 13 15 10 12 12 9 11 9 10 13 8 13
10 14 16 17 19 14 10 15 17 20 14 11 14 14 14 13 12 14 14 11 14 14 11 13 12 15 14 11 9 11 11 10 4 2 12 14 22 14 15 12 9 12 12 13 14 12 11 14 14
15 14 19 19 18 12 15 14 19 11 15 12 14 15 15 14 11 16 18 16 17 12 11 17 11 12 15 13 11 11 11 12 9 6 5 8 6 14 11 15 13 13 13 10 10 15 17 17 18
16 18 13 13 15 15 14 17 16 15 12 16 14 15 14 15 15 16 23 22 18 20 17 17 16 11 19 14 11 10 12 10 14 15 20 19 19 13 14 11 11 10 12 13 12 9 18 18 17
16 13 16 18 6 17 18 16 16 16 17 18 17 16 15 15 12 17 18 20 17 21 22 21 20 21 21 19 17 16 14 13 13 18 16 14 16 13 12 12 12 12 13 16 19 16 12 12 16
11 14 16 16 17 16 18 19 17 17 19 20 19 16 15 15 11 12 13 15 13 16 23 24 23 26 23 22 20 17 17 15 11 10 12 18 13 12 12 12 10 10 9 12 15 19 18 17 15
11 14 15 16 16 18 17 19 19 21 23 22 21 18 15 14 12 10 10 16 17 17 19 21 25 26 27 25 22 14 4 4 5 10 9 10 11 14 13 11 10 9 11 11 13 13 15 13 14
13 15 14 14 13 12 14 16 19 18 19 15 22 17 16 16 11 11 12 16 22 22 21 22 26 26 30 28 22 19 14 9 11 13 17 19 17 15 15 14 13 11 11 12 12 15 15 12 14
14 14 15 17 17 17 20 13 18 18 19 19 17 17 14 11 13 11 11 10 16 27 27 28 26 25 27 29 19 25 19 18 17 13 15 20 16 12 9 9 11 13 14 16 14 11 14 14 15
13 19 16 16 15 15 21 18 20 17 18 14 17 19 17 17 15 14 11 12 10 16 29 26 28 26 25 28 31 18 24 24 14 18 17 11 9 12 15 16 13 9 11 14 15 16 16 17 17
18 16 13 15 13 16 21 15 13 23 8 6 6 7 7 12 10 8 9 7 8 14 14 22 21 19 25 23 24 26 15 26 22 9 15 13 13 13 19 18 14 9 9 11 13 15 17 18 19
17 14 12 15 14 20 25 21 17 13 12 11 8 7 12 12 11 11 10 10 16 15 13 13 17 15 15 15 17 17 16 16 14 14 12 12 14 8 7 10 7 6 9 10 11 14 17 19 20
19 15 15 17 19 16 20 25 26 21 15 16 10 11 10 11 10 10 12 14 16 18 21 20 17 16 17 18 17 17 18 17 17 15 19 14 13 11 8 8 8 8 11 12 13 14 18 19 21
21 17 16 12 21 22 22 21 16 14 11 12 4 28 9 9 12 10 10 11 12 16 16 14 23 21 19 16 15 15 16 19 15 14 23 17 12 14 10 10 12 12 12 12 13 15 17 20 23
18 18 15 11 14 11 18 16 16 11 13 12 3 5 19 15 12 14 9 12 16 14 14 17 14 11 14 18 18 18 19 19 17 14 18 20 15 17 15 13 12 12 12 13 13 16 17 21 22
24 24 20 11 12 5 10 18 18 24 10 21 13 19 21 14 15 14 14 16 18 14 12 9 4 6 9 12 19 22 22 20 20 20 19 19 18 17 16 15 14 13 13 14 14 15 17 20 18
Wind_Direction
270 274 258 263 254 233 265 259 68 33 278 34 313 38 112 179 210 152 211 137 126 136 147 149 150 156 159 157 159 154 156 155 149 146 143 139 133 130 126 123 118 112 106 105 101 95 96 100 109
273 278 245 276 248 248 243 236 78 268 44 2 329 72 136 167 114 132 247 125 126 140 138 149 155 162 161 167 167 164 162 161 157 153 151 146 139 137 134 130 123 116 111 108 104 102 103 104 117
269 271 259 221 228 252 276 25 39 47 360 290 232 94 80 315 123 153 160 121 128 138 139 150 154 158 163 171 175 171 167 167 164 162 159 153 148 142 141 137 128 119 115 113 109 106 112 118 126
241 222 253 253 260 234 263 45 10 313 251 261 7 84 129 164 100 130 137 129 139 139 140 149 151 154 159 165 171 174 172 172 169 168 166 160 156 152 149 147 138 130 126 121 115 111 122 133 132
238 272 246 248 248 264 45 67 329 286 204 200 45 40 35 85 102 121 130 139 135 132 141 150 153 157 159 162 166 172 174 176 176 174 173 172 163 158 158 154 152 141 138 134 125 121 126 140 137
223 233 260 246 251 246 71 30 289 276 273 140 111 114 163 142 122 129 134 141 131 124 136 152 159 163 163 166 171 176 177 180 181 179 179 180 174 167 167 165 163 159 153 147 137 133 138 143 141
246 248 250 265 270 170 122 86 279 255 301 217 353 116 142 145 170 136 142 133 123 125 140 151 162 170 172 173 176 178 182 183 186 185 184 185 185 179 174 175 173 170 168 161 150 151 154 153 148
238 257 277 276 272 273 124 113 294 302 58 33 17 113 162 137 169 103 136 133 138 144 144 154 162 169 177 181 183 183 186 189 191 190 191 190 188 188 183 182 183 179 178 176 169 166 165 164 157
236 260 260 257 260 274 117 170 168 10 315 260 137 57 100 135 153 164 162 162 164 164 160 163 167 169 170 177 190 190 193 195 195 197 198 194 190 193 196 187 190 189 187 186 180 174 174 173 172
232 235 252 271 342 214 145 160 205 179 250 153 82 94 123 166 196 205 179 184 182 175 135 160 175 166 168 169 188 189 195 198 200 202 202 194 188 205 198 199 201 203 196 194 190 188 186 188 191
223 245 262 328 13 345 16 143 301 217 244 218 192 164 183 209 213 251 218 223 203 170 178 182 173 174 158 174 175 171 190 195 202 199 204 196 197 206 190 192 197 204 202 200 201 200 202 203 198
233 252 253 302 285 306 295 311 257 222 253 6 350 119 174 177 222 221 266 272 270 311 115 151 164 164 200 145 184 169 185 192 196 197 202 204 201 195 183 193 201 204 202 197 210 207 209 215 223
240 262 264 256 289 247 271 261 260 271 246 277 202 191 235 268 255 276 292 317 339 350 5 137 161 156 160 231 258 224 193 187 196 184 200 201 208 207 192 195 190 200 197 200 209 211 209 221 233
246 237 267 221 238 235 243 256 250 245 259 259 183 229 222 221 246 234 267 287 309 323 328 323 142 150 148 169 287 300 218 204 217 191 217 205 201 221 187 203 229 198 199 203 195 215 227 216 229
262 275 272 251 243 245 244 251 249 246 237 236 239 229 245 234 217 242 224 223 254 265 262 270 173 151 150 180 249 271 273 289 190 186 229 254 208 213 208 193 220 226 243 236 206 221 211 223 243
269 256 254 250 221 231 232 258 245 228 213 212 231 234 229 229 215 216 236 215 209 208 212 216 233 173 175 179 208 242 250 281 315 306 212 188 201 213 208 211 212 208 243 229 227 225 238 221 235
231 244 239 247 215 198 202 250 259 194 204 218 228 232 238 239 222 207 211 219 206 188 195 189 207 165 170 174 199 221 243 236 251 213 186 185 299 205 199 217 222 227 240 256 231 220 217 233 231
240 221 229 248 159 193 231 240 252 274 213 216 243 244 245 248 243 226 209 215 213 191 187 182 195 188 163 166 181 213 228 214 198 229 234 228 194 206 208 210 204 221 228 241 284 279 243 241 258
289 307 299 300 308 200 218 228 246 263 274 260 227 233 236 244 244 228 224 202 196 188 188 190 196 190 167 171 184 212 214 203 232 218 147 155 176 174 196 209 219 228 229 240 251 272 273 268 262
291 285 279 279 281 280 277 268 268 260 258 262 262 242 234 241 213 232 170 171 190 193 181 186 200 189 180 182 195 207 217 208 208 179 148 158 142 168 190 210 209 210 219 245 256 258 276 267 273
262 269 278 283 295 297 292 270 265 257 249 249 251 250 238 242 211 199 175 168 187 184 182 185 202 191 184 191 200 224 220 194 161 132 159 178 170 178 187 200 207 210 221 235 262 268 259 265 261
276 280 277 286 290 273 271 280 281 283 281 258 223 235 235 233 208 207 183 170 181 199 199 198 203 195 191 191 196 199 207 193 227 224 216 191 187 198 202 208 221 230 240 242 256 260 254 250 249
286 304 301 298 289 286 273 273 275 269 261 256 211 213 230 212 235 213 221 194 190 191 192 195 199 198 193 201 203 195 196 224 225 228 145 161 175 186 202 215 218 229 239 248 261 253 258 245 258
293 295 279 287 274 263 265 256 266 262 264 285 241 195 204 211 207 223 204 186 190 234 183 183 193 200 196 201 210 199 197 216 227 220 158 169 196 218 213 212 218 228 239 246 255 258 253 256 259
241 251 265 256 254 254 259 254 281 294 349 326 343 200 205 221 207 204 188 171 190 231 186 164 179 191 197 196 202 217 212 215 227 209 179 186 210 210 211 198 193 206 241 256 260 260 257 254 260
276 271 272 281 275 283 301 293 287 267 277 257 227 281 190 199 203 205 177 193 183 195 147 179 168 190 204 206 201 202 208 203 205 201 196 206 219 225 176 177 188 213 248 265 268 265 262 257 256
299 277 257 272 288 283 282 291 288 286 253 228 248 249 232 192 194 211 182 197 170 161 161 158 168 183 193 204 208 209 211 206 209 213 209 211 191 194 210 212 231 237 241 257 272 274 269 265 261
285 288 275 258 268 265 270 274 280 322 1 92 277 275 237 227 199 225 176 147 163 148 148 153 165 172 181 189 190 198 201 210 217 206 203 202 213 219 204 199 216 238 246 254 265 273 273 269 262
284 284 280 254 286 279 291 266 249 278 1 342 207 304 303 269 235 196 196 178 184 159 182 177 207 211 193 192 197 208 206 211 219 200 205 203 202 197 211 215 225 238 248 254 259 265 272 277 273
289 286 285 285 278 260 285 271 288 298 317 8 338 311 299 262 245 225 189 195 182 189 198 217 207 277 270 243 221 215 216 215 214 215 209 212 212 215 216 222 229 234 247 254 255 259 263 274 280